TimeCDT,TemperatureF,Dew PointF,Humidity,Sea Level PressureIn,VisibilityMPH,Wind Direction,Wind SpeedMPH,Gust SpeedMPH,PrecipitationIn,Events,Conditions,WindDirDegrees,DateUTC
12:53 AM,33.1,26.1,75,30.46,10.0,SSW,3.5,-,N/A,,Clear,210,2013-10-25 05:53:00
1:53 AM,33.1,26.1,75,30.47,10.0,SW,3.5,-,N/A,,Clear,220,2013-10-25 06:53:00
2:53 AM,30.9,25.0,79,30.48,10.0,SW,3.5,-,N/A,,Clear,230,2013-10-25 07:53:00
3:53 AM,30.9,26.1,82,30.48,10.0,SW,4.6,-,N/A,,Clear,230,2013-10-25 08:53:00
4:53 AM,32.0,25.0,75,30.48,10.0,SSW,4.6,-,N/A,,Clear,210,2013-10-25 09:53:00
5:53 AM,32.0,24.1,73,30.49,10.0,SSW,4.6,-,N/A,,Clear,210,2013-10-25 10:53:00
6:53 AM,33.1,24.1,70,30.49,10.0,SSW,4.6,-,N/A,,Clear,210,2013-10-25 11:53:00
7:53 AM,33.1,24.1,70,30.49,10.0,SSW,5.8,-,N/A,,Clear,210,2013-10-25 12:53:00
8:53 AM,37.0,26.1,65,30.49,10.0,SSW,6.9,-,N/A,,Clear,210,2013-10-25 13:53:00
9:53 AM,43.0,27.0,53,30.50,10.0,South,11.5,-,N/A,,Clear,190,2013-10-25 14:53:00
10:53 AM,46.9,24.1,41,30.48,10.0,South,9.2,18.4,N/A,,Clear,180,2013-10-25 15:53:00
11:53 AM,50.0,23.0,35,30.46,10.0,South,12.7,-,N/A,,Clear,190,2013-10-25 16:53:00
12:53 PM,52.0,23.0,32,30.43,10.0,SSW,10.4,23.0,N/A,,Clear,210,2013-10-25 17:53:00
1:53 PM,54.0,21.9,29,30.39,10.0,South,12.7,-,N/A,,Clear,190,2013-10-25 18:53:00
2:45 PM,55.0,21.0,27,30.34,10.0,SSW,11.5,-,N/A,,Partly Cloudy,200,2013-10-25 19:45:00
2:53 PM,55.0,21.0,27,30.36,10.0,SSW,12.7,-,N/A,,Clear,210,2013-10-25 19:53:00
3:53 PM,55.0,21.9,28,30.33,10.0,South,9.2,19.6,N/A,,Clear,190,2013-10-25 20:53:00
4:53 PM,55.0,21.9,28,30.29,10.0,South,10.4,-,N/A,,Clear,180,2013-10-25 21:53:00
5:53 PM,53.1,21.9,30,30.26,10.0,South,10.4,-,N/A,,Clear,190,2013-10-25 22:53:00
6:53 PM,50.0,23.0,35,30.25,10.0,South,5.8,-,N/A,,Clear,190,2013-10-25 23:53:00
7:53 PM,48.9,24.1,38,30.23,10.0,South,6.9,-,N/A,,Clear,180,2013-10-26 00:53:00
8:53 PM,48.9,24.1,38,30.22,10.0,South,6.9,-,N/A,,Clear,190,2013-10-26 01:53:00
9:53 PM,46.9,25.0,42,30.21,10.0,SSW,6.9,-,N/A,,Clear,200,2013-10-26 02:53:00
10:53 PM,46.9,25.0,42,30.20,10.0,SSW,6.9,-,N/A,,Clear,200,2013-10-26 03:53:00
11:53 PM,48.0,27.0,44,30.17,10.0,SW,11.5,-,N/A,,Overcast,220,2013-10-26 04:53:00